Zurück zum Katalog

TIANQI 34

AktivKommunikationLEO
NORAD 62366·PAYLOAD·🇨🇳 China

Gestartet Dec 19, 2024 von Yellow Sea Launch Area

Loading…

Nächste Überflüge (nächste 24 Stunden)

TLE

AktuellSource: Space-Track

Epoche: Sep 14, 2026, 13:01 UTC

1 62366U 24245B   26257.54293091 -.00000012  00000-0  80048-4 0  9993
2 62366  44.9800 284.0927 0002521  85.8274 274.2847 13.99243591 88844

Verfolge TIANQI 34 in Echtzeit mit AllMySat

Download on the App Store